METEOSAT-8 (MSG-1)

Last updated on Aug. 14, 2020, 5:30 a.m. UTC

1 27509U 02040B   20226.20014718  .00000137  00000-0  00000-0 0  9995
2 27509   6.8203  53.8502 0001339  95.8271 285.8230  1.00272002 65862
UTC
Height (km)
Latitude
Longitude
Inclination
Orbital Period
UTC large
Height (km)
Speed (km/s)
/
Latitude / Longitude
Inclination (degrees)
Orbital Period (minutes)
Azimuth
Elevation
Range (km)
Doppler Factor
iOS Compass Heading
iOS Angle

Next 30 passes for location: Hong Kong

Rise time Rise Azimuth (degrees) Set time Set Azimuth (degrees) Duration Max altitude (degrees)

No matching passes for this satellites